Date String (YYYY-MM-DD hh:mm:ss) UTC,Instrument flags,Ambient pressure (hPa),Sample flow (lpm),Bypass flow (lpm),Sample temperature (°C),Ambient temperature (°C),ASC tube jacket temperature (°C),LED temperature (°C),Box temperature (°C),Sample RH (%),Span deviation,Mass concentration (μg/m³),Mass concentration (μg/m³),Mass concentration (μg/m³)
DateTimeUTC,F1_M11,P_M11,Q1_M11,Q2_M11,T1_M11,T2_M11,T3_M11,T4_M11,T5_M11,U1_M11,ZSPAN_M11,X0_M11,X2_M11,X1_M11
2023-04-24 14:00:00,,0826.0,5.01,0.00,22.2,20.7,00.0,30.7,23.8,15.9,0002.5,0012.57,0007.60,0006.97
2023-04-24 14:01:00,,0826.0,5.01,0.00,22.2,20.7,00.0,30.7,23.8,15.7,0002.1,0012.59,0007.60,0006.96
2023-04-24 14:02:00,,0826.1,5.00,0.00,22.2,20.7,00.0,30.7,23.8,15.8,0002.1,0012.98,0007.62,0006.93
2023-04-24 14:03:00,,0826.1,4.99,0.00,22.2,20.6,00.0,30.7,23.8,16.1,0002.0,0013.06,0007.62,0006.90
2023-04-24 14:04:00,,0826.1,4.99,0.00,22.2,20.6,00.0,30.7,23.8,16.2,0000.8,0012.40,0007.61,0006.89
2023-04-24 14:05:00,,0826.1,5.00,0.00,22.2,20.7,00.0,30.7,23.8,16.1,0000.9,0012.30,0007.57,0006.88
2023-04-24 14:06:00,,0826.1,5.01,0.00,22.2,20.7,00.0,30.7,23.8,16.0,0000.7,0012.26,0007.55,0006.87
2023-04-24 14:07:00,,0826.0,5.01,0.00,22.2,20.7,00.0,30.7,23.8,15.9,-000.1,0012.39,0007.58,0006.86
2023-04-24 14:08:00,,0826.0,5.00,0.00,22.2,20.8,00.0,30.7,23.8,16.0,0000.6,0012.27,0007.56,0006.85
2023-04-24 14:09:00,,0826.0,5.00,0.00,22.2,20.8,00.0,30.7,23.8,15.9,0000.6,0011.71,0007.55,0006.83
2023-04-24 14:10:00,,0826.1,5.00,0.00,22.2,20.8,00.0,30.7,23.9,15.6,0000.5,0011.53,0007.55,0006.83
2023-04-24 14:11:00,,0826.0,5.00,0.00,22.2,20.8,00.0,30.7,23.8,15.9,0000.1,0011.33,0007.51,0006.82
2023-04-24 14:12:00,,0826.0,5.00,0.00,22.2,20.8,00.0,30.7,23.8,15.8,0000.3,0011.44,0007.51,0006.80
2023-04-24 14:13:00,,0826.0,5.00,0.00,22.2,20.8,00.0,30.7,23.8,15.7,-000.0,0011.42,0007.50,0006.82
2023-04-24 14:14:00,,0826.0,5.00,0.00,22.2,20.8,00.0,30.7,23.8,15.8,-000.1,0011.96,0007.53,0006.86
2023-04-24 14:15:00,,0826.0,5.00,0.00,22.2,20.8,00.0,30.7,23.8,15.8,0000.4,0012.19,0007.50,0006.85
2023-04-24 14:16:00,,0826.0,5.01,0.00,22.2,20.8,00.0,30.6,23.8,16.0,0000.2,0012.80,0007.51,0006.84
2023-04-24 14:17:00,,0826.1,5.00,0.00,22.2,20.7,00.0,30.6,23.8,16.1,0000.1,0012.91,0007.53,0006.85
2023-04-24 14:18:00,,0826.1,5.00,0.00,22.2,20.7,00.0,30.7,23.8,16.4,0000.8,0013.05,0007.57,0006.88
2023-04-24 14:19:00,,0826.1,4.99,0.00,22.2,20.7,00.0,30.7,23.9,16.6,0001.4,0013.00,0007.59,0006.89
2023-04-24 14:20:00,,0826.1,4.99,0.00,22.3,20.8,00.0,30.7,23.9,16.8,0001.2,0012.97,0007.61,0006.90
2023-04-24 14:21:00,,0826.1,5.00,0.00,22.3,20.8,00.0,30.7,23.9,17.1,0001.7,0013.12,0007.63,0006.90
2023-04-24 14:22:00,,0826.1,5.00,0.00,22.3,20.9,00.0,30.7,23.9,16.9,0001.8,0013.09,0007.65,0006.91
2023-04-24 14:23:00,,0826.0,5.01,0.00,22.3,20.9,00.0,30.6,23.9,16.7,0002.3,0012.92,0007.63,0006.92
2023-04-24 14:24:00,,0826.1,5.01,0.00,22.3,21.0,00.0,30.6,23.9,16.2,0002.9,0012.56,0007.61,0006.92
2023-04-24 14:25:00,,0826.0,4.99,0.00,22.3,21.0,00.0,30.6,24.0,16.1,0003.0,0011.90,0007.60,0006.91
2023-04-24 14:26:00,,0826.1,5.00,0.00,22.4,21.0,00.0,30.7,24.0,15.7,0003.4,0011.68,0007.62,0006.92
2023-04-24 14:27:00,,0826.1,5.00,0.00,22.4,21.0,00.0,30.7,24.0,16.1,0004.1,0011.60,0007.63,0006.93
2023-04-24 14:28:00,,0826.1,5.00,0.00,22.4,21.0,00.0,30.7,24.0,16.0,0004.1,0011.91,0007.65,0006.94
2023-04-24 14:29:00,,0826.0,5.01,0.00,22.3,20.9,00.0,30.7,23.9,15.8,0004.0,0012.06,0007.66,0006.96
2023-04-24 14:30:00,,0826.1,5.00,0.00,22.3,20.9,00.0,30.7,24.0,16.1,0003.8,0012.38,0007.71,0007.00
2023-04-24 14:31:00,,0826.1,5.00,0.00,22.3,20.9,00.0,30.7,24.0,16.2,0004.0,0013.05,0007.78,0007.05
2023-04-24 14:32:00,,0826.0,5.00,0.00,22.3,20.8,00.0,30.7,23.9,16.1,0003.8,0013.49,0007.84,0007.09
2023-04-24 14:33:00,,0826.0,5.00,0.00,22.3,20.8,00.0,30.7,23.9,16.2,0003.5,0013.64,0007.89,0007.14
2023-04-24 14:34:00,,0826.1,5.00,0.00,22.3,20.8,00.0,30.7,23.9,16.3,0003.2,0014.66,0007.91,0007.17
2023-04-24 14:35:00,,0826.1,5.00,0.00,22.3,20.8,00.0,30.7,23.9,16.2,0002.8,0015.40,0008.00,0007.21
2023-04-24 14:36:00,,0826.1,5.00,0.00,22.3,20.8,00.0,30.7,23.9,15.9,0002.8,0016.54,0008.07,0007.25
2023-04-24 14:37:00,,0826.2,4.99,0.00,22.3,20.8,00.0,30.7,23.9,16.0,0002.3,0016.56,0008.11,0007.30
2023-04-24 14:38:00,,0826.2,5.00,0.00,22.3,20.8,00.0,30.7,23.9,15.9,0002.0,0016.19,0008.12,0007.33
2023-04-24 14:39:00,,0826.2,5.00,0.00,22.3,20.8,00.0,30.7,23.9,15.8,0001.7,0015.83,0008.13,0007.36
2023-04-24 14:40:00,,0826.2,5.00,0.00,22.3,20.8,00.0,30.7,23.9,15.7,0001.7,0015.55,0008.13,0007.38
2023-04-24 14:41:00,,0826.2,5.01,0.00,22.3,20.8,00.0,30.7,23.9,15.9,0002.3,0015.39,0008.11,0007.38
2023-04-24 14:42:00,,0826.2,5.01,0.00,22.3,20.8,00.0,30.7,23.9,16.1,0002.0,0015.53,0008.08,0007.38
2023-04-24 14:43:00,,0826.2,5.00,0.00,22.3,20.8,00.0,30.7,23.8,16.3,0001.6,0015.33,0008.09,0007.39
2023-04-24 14:44:00,,0826.2,5.00,0.00,22.2,20.8,00.0,30.7,23.8,16.1,0001.5,0015.19,0008.08,0007.40
2023-04-24 14:45:00,,0826.2,5.00,0.00,22.2,20.7,00.0,30.7,23.8,16.2,0001.3,0014.59,0008.11,0007.41
2023-04-24 14:46:00,,0826.2,5.00,0.00,22.2,20.7,00.0,30.7,23.8,16.0,0002.0,0014.16,0008.10,0007.41
2023-04-24 14:47:00,,0826.2,5.00,0.00,22.2,20.6,00.0,30.7,23.8,16.2,0002.3,0013.88,0008.09,0007.41
2023-04-24 14:48:00,,0826.2,5.00,0.00,22.2,20.6,00.0,30.6,23.8,16.7,0002.6,0013.93,0008.09,0007.40
2023-04-24 14:49:00,,0826.2,5.00,0.00,22.2,20.6,00.0,30.6,23.7,16.6,0002.3,0013.85,0008.08,0007.40
2023-04-24 14:50:00,,0826.2,5.00,0.00,22.2,20.6,00.0,30.6,23.7,16.4,0002.1,0013.86,0008.08,0007.39
2023-04-24 14:51:00,,0826.2,5.00,0.00,22.1,20.6,00.0,30.6,23.7,16.4,0002.1,0013.97,0008.10,0007.39
2023-04-24 14:52:00,,0826.1,5.01,0.00,22.1,20.5,00.0,30.6,23.7,16.2,0000.8,0014.19,0008.15,0007.40
2023-04-24 14:53:00,,0826.2,5.01,0.00,22.1,20.5,00.0,30.6,23.6,15.9,0000.6,0014.07,0008.21,0007.41
2023-04-24 14:54:00,,0826.2,5.00,0.00,22.1,20.4,00.0,30.6,23.6,15.7,0001.1,0013.85,0008.20,0007.42
2023-04-24 14:55:00,,0826.2,4.99,0.00,22.1,20.4,00.0,30.6,23.6,15.5,0001.4,0013.78,0008.19,0007.43
2023-04-24 14:56:00,,0826.1,5.01,0.00,22.0,20.4,00.0,30.6,23.5,16.2,0001.3,0013.84,0008.22,0007.46
2023-04-24 14:57:00,,0826.2,5.00,0.00,22.0,20.4,00.0,30.5,23.5,16.5,0001.1,0013.59,0008.22,0007.47
2023-04-24 14:58:00,,0826.2,5.01,0.00,22.1,20.9,00.0,30.5,23.8,16.5,0001.0,0012.56,0008.20,0007.48
2023-04-24 14:59:00,,0826.2,5.00,0.00,22.2,22.2,00.0,30.5,24.2,16.3,0000.6,0012.49,0008.20,0007.50
